Home > Weather > Bühl > Past weeks

Flag for Germany Past Weather in Bühl, Baden-Württemberg, Germany — Yesterday and Last 2 Weeks

Now
70 °F

Clear.


Feels Like: 70 °F
Forecast: 59 / 88 °F
Wind: 6 mph from Northeast

Location: Karlsruhe - Baden Wurttemberg

Current Time: Aug 24, 2016 at 11:40:10 PM

Latest Report: Aug 24, 2016 at 10:50 PM


Visibility: 10 mi

Pressure: 30.09 "Hg

Humidity: 78%

Dew Point: 63 °F

Location of BühlLocation

Past Weather in Bühl — Graph

°F

Bühl Temperature Yesterday

Maximum temperature yesterday: 82 °F (at 2:50 PM)
Minimum temperature yesterday: 54 °F (at 5:20 AM)
Average temperature yesterday: 71 °F

High & Low Weather Summary for the Past Weeks

 TemperatureHumidityPressure
High90 °F (Aug 24, 4:20 PM)100% (Aug 10, 10:20 PM)30.39 "Hg (Aug 10, 10:20 PM)
Low45 °F (Aug 11, 5:20 AM)33% (Aug 24, 6:20 PM)29.80 "Hg (Aug 18, 6:20 AM)
Average67 °F72%30.11 "Hg
* Reported Aug 9 9:20 PM — Aug 24 9:50 PM, Bühl, Weather by CustomWeather, © 2016

Note: Actual official high and low records may vary slightly from our data, if they occured in-between our weather recording intervals... More about our weather records

Advertising

Bühl Weather History for the Previous 24 Hours

Scroll right to see more
 ConditionsComfort  
Time TempWeatherWind HumidityBarometerVisibility
9:50 PM
Wed, Aug 24
72 °FClear.9 mph73%30.09 "Hg10 mi
9:20 PM75 °FSunny.6 mph61%30.09 "Hg10 mi
8:50 PM77 °FSunny.6 mph57%30.09 "Hg10 mi
8:20 PM79 °FSunny.8 mph54%30.09 "Hg10 mi
7:50 PM82 °FSunny.8 mph48%30.07 "Hg10 mi
7:20 PM88 °FSunny.10 mph38%30.07 "Hg10 mi
6:50 PM88 °FSunny.14 mph35%30.07 "Hg10 mi
6:20 PM90 °FSunny.14 mph33%30.09 "Hg10 mi
5:50 PM90 °FPassing clouds.9 mph36%30.09 "HgN/A
5:20 PM90 °FPassing clouds.9 mph36%30.09 "HgN/A
4:50 PM90 °FPassing clouds.12 mph36%30.09 "HgN/A
4:20 PM90 °FPassing clouds.9 mph38%30.09 "HgN/A
3:50 PM88 °FPassing clouds.9 mph38%30.12 "HgN/A
3:20 PM88 °FPassing clouds.10 mph40%30.12 "HgN/A
2:50 PM86 °FPassing clouds.10 mph43%30.12 "HgN/A
2:20 PM86 °FPassing clouds.10 mph46%30.15 "HgN/A
1:50 PM84 °FPassing clouds.9 mph48%30.15 "HgN/A
1:20 PM84 °FSunny.9 mph48%30.15 "Hg10 mi
12:50 PM82 °FPassing clouds.8 mph51%30.18 "HgN/A
12:20 PM81 °FPassing clouds.6 mph54%30.18 "HgN/A
11:50 AM79 °FPassing clouds.5 mph61%30.18 "HgN/A
11:20 AM75 °FPassing clouds.5 mph65%30.18 "HgN/A
10:50 AM73 °FSunny.3 mph69%30.21 "Hg10 mi
10:20 AM72 °FSunny.3 mph69%30.21 "Hg10 mi
9:50 AM70 °FSunny.3 mph73%30.21 "Hg10 mi
9:20 AM68 °FSunny.3 mph78%30.21 "Hg10 mi
8:50 AM66 °FSunny.3 mph83%30.21 "Hg10 mi
8:20 AM64 °FPassing clouds.5 mph88%30.21 "HgN/A
7:50 AM61 °FSunny.2 mph100%30.21 "Hg10 mi
7:20 AM57 °FFog.No wind100%30.21 "HgN/A
6:50 AM57 °FLight fog.2 mph100%30.18 "HgN/A
6:20 AM59 °FLight fog.1 mph94%30.18 "HgN/A
5:50 AM59 °FFog.No wind94%30.18 "HgN/A
5:20 AM59 °FFog.No wind100%30.18 "HgN/A
4:50 AM61 °FClear.2 mph94%30.18 "Hg10 mi
11:20 PM
Tue, Aug 23
66 °FClear.7 mph83%30.24 "Hg10 mi
Weather by CustomWeather, © 2016

See weather overviewHow to use our weather pages